Regional Weather Roundup
Issued by NWS

Home | Current Version | Previous Version | Text Only | Print | Product List | Glossary On
Versions: 1 2 3 4 5 6 7 8 9 10 11 12 13 14 15 16 17 18 19 20 21 22 23 24 25 26 27 28 29 30 31 32 33 34 35 36 37 38 39 40 41 42 43 44 45 46 47 48 49 50
000
ASUS43 KBIS 240310
RWRND

NORTH DAKOTA REGIONAL WEATHER ROUNDUP
NATIONAL WEATHER SERVICE BISMARCK ND
1000 PM CDT MON APR 23 2018

NOTE: "FAIR" INDICATES FEW OR NO CLOUDS BELOW 12,000 FEET WITH NO
SIGNIFICANT WEATHER AND/OR OBSTRUCTIONS TO VISIBILITY.


NDZ001>003-009>011-017-240400-
NORTHWEST NORTH DAKOTA

CITY           SKY/WX    TMP DP  RH WIND       PRES   REMARKS
WILLISTON      CLOUDY    44  24  45 N7        30.34R
MINOT          CLOUDY    49  24  37 N14       30.30R
MINOT AFB      CLOUDY    47  26  43 N12       30.29R
$$

NDZ018>021-031>035-040>046-240400-
SOUTHWEST NORTH DAKOTA

CITY           SKY/WX    TMP DP  RH WIND       PRES   REMARKS
BISMARCK       LGT RAIN  51  36  56 N20G29    30.24R
DICKINSON      RAIN      37  35  92 N24G31    30.27R
GARRISON         N/A     44  38  79 N6        30.30R
HETTINGER ARPT LGT RAIN  41  35  79 N32G41    30.19R
$$

NDZ004>008-012>016-024-026-027-054-240400-
NORTHEAST NORTH DAKOTA

CITY           SKY/WX    TMP DP  RH WIND       PRES   REMARKS
GRAND FORKS    MOCLDY    49  43  80 NW7       30.20R
GRND FRKS AFB  FAIR      48  37  65 N6        30.21R
DEVILS LAKE    CLOUDY    48  37  65 N8        30.26R
$$

NDZ022-023-025-028>030-036>039-047>053-240400-
SOUTHEAST NORTH DAKOTA

CITY           SKY/WX    TMP DP  RH WIND       PRES   REMARKS
FARGO          FAIR      54  39  57 N10       30.17R
JAMESTOWN      CLOUDY    52  39  61 N13       30.19R
$$





USA.gov is the U.S. government's official web portal to all federal, state and local government web resources and services.